Location: Burbank
(38.7788°N, 114.0429°W)
Time: 19:50:19
(UTC+00:00)

Vanguard 2 Rocket - Pass Details

Date: 23 May 2026
Orbit: 553 x 3286 km, 32.9° (Epoch: 6 June)

Event Time Altitude Azimuth Distance (km) Brightness Sun altitude
Rises 19:47:13 0° 273° (W) 5,098 10.8 71.7°
Reaches altitude 10° 19:50:04 10° 270° (W) 4,407 10.6 71.6°
Maximum altitude 20:03:04 63° 193° (SSW) 2,981 12.2 70.8°
Drops below altitude 10° 20:22:19 10° 119° (ESE) 6,225 11.3 69.0°
Sets 20:27:17 0° 116° (ESE) 7,235 11.5 68.5°
